ARIANE 5 DEB (SYLDA) - Orbit

View from above orbital plane
View from above orbital plane
View from above satellite
View from above satellite

Ground track
Ground track

The orbit data is extracted from the following two-line orbital elements,

1 32770U 08018D   13140.51550053  .00030779  00000-0  63707-2 0   744
2 32770 001.4669 046.4487 6230564 098.3346 080.3133 03.70184645 53711
Epoch (UTC): 20 May 2013 12:22:19
Eccentricity: 0.6230564
inclination: 1.4669°
perigee height: 275 km
apogee height: 22271 km
right ascension of ascending node: 46.4487°
argument of perigee: 98.3346°
revolutions per day: 3.70184645
mean anomaly at epoch: 80.3133°
orbit number at epoch: 5371

The dashed part of the orbit path shows where the satellite is in the earth's shadow,  

Developed and maintained by Chris Peat, Heavens-Above GmbH. Please read the updated FAQ before sending e-mail. Imprint. DLR